EA5ZF La Vall d\\\'Uixo ES current weather conditions

sailwx.info

Air temperature 21.7° C
Dewpoint 19.8° C

Last reported at 2019-Sep-22 01:00 UTC.
Time now 2019-Sep-22 02:10 UTC

Location: N 39°50' W 000°14'.
View on Google Maps.

See reports from other nearby stations

  
Tides and Currents Weather Stations Pressure Air Temp Water Temp Dewpoint Dewpoint Depression Visibility Wind Speed Wind Dir Waves Ship Positions
date/time (UTC)wind fromknots sea level pressurealtimeterstation pressurevisibilityair tempwater tempwave heightnotes
2019-Sep-22 01:00 21.7
2019-Sep-22 00:50 21.7
2019-Sep-22 00:40 21.7
2019-Sep-22 00:30 21.7
2019-Sep-22 00:20 21.7
2019-Sep-22 00:10 21.7
2019-Sep-22 00:00 21.7
2019-Sep-21 23:50 338 0 gusting 2 21.7
2019-Sep-21 23:40 21.7
2019-Sep-21 23:30 22.2
2019-Sep-21 23:20 22.2
2019-Sep-21 23:10 22.2
2019-Sep-21 23:00 22.2
2019-Sep-21 22:50 22.2
2019-Sep-21 22:40 22.2
2019-Sep-21 22:30 22.2
2019-Sep-21 22:20 22.2
2019-Sep-21 22:10 22.2
2019-Sep-21 22:00 22.2
2019-Sep-21 21:50 068 0 gusting 3 22.2
2019-Sep-21 21:40 045 1 gusting 4 22.2
2019-Sep-21 21:30 068 2 gusting 4 22.2
2019-Sep-21 21:20 045 1 gusting 4 22.2
2019-Sep-21 21:10 068 2 gusting 6 22.2
2019-Sep-21 21:00 045 2 gusting 6 22.2
2019-Sep-21 20:50 045 2 gusting 5 22.8
2019-Sep-21 20:40 045 3 gusting 6 22.8
2019-Sep-21 20:30 068 2 gusting 5 22.8
2019-Sep-21 20:20 045 1 gusting 4 22.8
2019-Sep-21 20:10 045 1 gusting 3 23.3
2019-Sep-21 20:00 045 0 gusting 2 23.3
2019-Sep-21 19:50 045 0 gusting 2 23.3
2019-Sep-21 19:40 068 0 gusting 2 23.3
2019-Sep-21 19:30 045 0 gusting 2 23.3
2019-Sep-21 19:20 045 0 gusting 3 23.3
2019-Sep-21 19:10 045 0 gusting 2 23.3
2019-Sep-21 19:00 045 1 gusting 4 23.9
2019-Sep-21 18:50 068 0 gusting 3 24.4
2019-Sep-21 18:40 24.4
2019-Sep-21 18:30 24.4
2019-Sep-21 18:20 24.4
2019-Sep-21 18:10 24.4
2019-Sep-21 18:00 135 0 gusting 4 25.0
2019-Sep-21 17:50 203 0 gusting 2 25.0
2019-Sep-21 17:40 180 0 gusting 2 25.0
2019-Sep-21 17:30 225 0 gusting 2 25.0
2019-Sep-21 17:20 225 0 gusting 3 25.0
2019-Sep-21 17:10 225 0 gusting 3 25.6
2019-Sep-21 17:00 225 0 gusting 1 25.6
2019-Sep-21 16:50 203 0 gusting 1 25.6
2019-Sep-21 16:40 135 0 gusting 2 25.0
2019-Sep-21 16:30 113 0 gusting 3 25.6
2019-Sep-21 16:20 113 0 gusting 1 25.6
2019-Sep-21 16:10 113 1 gusting 5 25.6
2019-Sep-21 16:00 113 1 gusting 4 26.1
2019-Sep-21 15:50 135 0 gusting 3 26.1
2019-Sep-21 15:40 135 2 gusting 6 26.7
2019-Sep-21 15:30 135 0 gusting 2 27.2
2019-Sep-21 15:20 180 1 gusting 6 27.2
2019-Sep-21 15:15 203 1 gusting 5 27.2
2019-Sep-21 15:05 135 2 gusting 6 27.2
2019-Sep-21 14:55 135 2 gusting 7 27.2
2019-Sep-21 14:45 27.8
2019-Sep-21 14:35 135 0 gusting 6 27.8
2019-Sep-21 14:25 135 2 gusting 5 27.2
2019-Sep-21 14:12 225 1 gusting 3 26.1
2019-Sep-21 14:05 225 1 gusting 4 26.1
2019-Sep-21 13:55 135 2 gusting 6 26.1
2019-Sep-21 13:45 203 2 gusting 6 26.7
2019-Sep-21 13:35 203 1 gusting 6 26.7
2019-Sep-21 13:25 203 1 gusting 5 26.7
2019-Sep-21 13:15 135 2 gusting 7 26.7
2019-Sep-21 13:05 135 1 gusting 6 27.2
2019-Sep-21 13:00 135 1 gusting 4 27.2
2019-Sep-21 12:50 135 2 gusting 6 26.1
2019-Sep-21 10:25 135 0 gusting 2 26.1
2019-Sep-21 10:15 26.1
2019-Sep-21 10:05 045 0 gusting 3 25.6
2019-Sep-21 09:55 113 1 gusting 5 25.6
2019-Sep-21 09:45 135 0 gusting 2 26.1
2019-Sep-21 09:35 135 0 gusting 3 25.6
2019-Sep-21 09:25 25.6
2019-Sep-21 09:15 25.6
2019-Sep-21 09:05 25.0
2019-Sep-21 08:55 135 0 gusting 2 25.0
2019-Sep-21 08:45 135 0 gusting 5 25.0
2019-Sep-21 08:35 24.4
2019-Sep-21 08:25 24.4
2019-Sep-21 08:15 23.9
2019-Sep-21 08:05 225 0 gusting 2 23.3
2019-Sep-21 07:55 23.3
2019-Sep-21 07:45 22.2
2019-Sep-21 07:35 22.2
2019-Sep-21 07:25 21.7
2019-Sep-21 07:15 21.7
2019-Sep-21 07:05 22.2
2019-Sep-21 06:55 045 1 gusting 5 21.7
2019-Sep-21 06:45 113 1 gusting 5 21.7
2019-Sep-21 06:35 315 0 gusting 2 21.7
2019-Sep-21 06:25 21.1
2019-Sep-21 06:15 21.7
2019-Sep-21 06:05 21.7
2019-Sep-21 05:55 315 0 gusting 4 21.7
2019-Sep-21 05:45 21.7
2019-Sep-21 05:35 293 0 gusting 2 21.1
2019-Sep-21 05:25 21.1
2019-Sep-21 05:15 21.1
2019-Sep-21 05:05 338 0 gusting 2 21.1
2019-Sep-21 04:55 21.1
2019-Sep-21 04:45 338 0 gusting 3 21.1
2019-Sep-21 04:35 338 0 gusting 3 21.1
2019-Sep-21 04:25 20.6
2019-Sep-21 04:15 20.6
2019-Sep-21 04:05 338 1 gusting 4 20.6
2019-Sep-21 03:55 315 1 gusting 3 20.6
2019-Sep-21 03:45 338 1 gusting 3 20.6
2019-Sep-21 03:35 20.6
2019-Sep-21 03:25 20.6
2019-Sep-21 03:15 20.6
2019-Sep-21 03:05 20.6
2019-Sep-21 02:55 20.6
2019-Sep-21 02:45 20.6
2019-Sep-21 02:35 225 0 gusting 3 20.6
2019-Sep-21 02:25 20.6
2019-Sep-21 02:15 338 0 gusting 3 20.6
2019-Sep-21 02:05 315 1 gusting 5 21.1
2019-Sep-21 01:55 045 0 gusting 2 21.7
2019-Sep-21 01:45 338 1 gusting 4 21.7
2019-Sep-21 01:35 338 2 gusting 4 21.7
2019-Sep-21 01:25 045 0 gusting 4 21.7
2019-Sep-21 01:15 315 0 gusting 2 21.7
2019-Sep-21 01:05 21.7
2019-Sep-21 00:55 023 0 gusting 2 21.7
2019-Sep-21 00:45 338 1 gusting 4 21.7
2019-Sep-21 00:35 315 0 gusting 4 21.7
2019-Sep-21 00:25 315 1 gusting 6 21.7
2019-Sep-21 00:15 315 0 gusting 5 21.7
2019-Sep-21 00:05 045 0 gusting 4 21.7
2019-Sep-20 23:55 045 0 gusting 3 21.7
2019-Sep-20 23:45 068 1 gusting 4 21.7
2019-Sep-20 23:35 315 0 gusting 2 21.7
2019-Sep-20 23:25 21.7
2019-Sep-20 23:15 338 2 gusting 6 21.7
2019-Sep-20 23:05 338 0 gusting 4 21.7
2019-Sep-20 22:55 338 1 gusting 5 21.7
2019-Sep-20 22:45 023 1 gusting 6 22.2
2019-Sep-20 22:35 045 2 gusting 5 22.2
2019-Sep-20 22:25 023 2 gusting 6 22.2
2019-Sep-20 22:15 045 1 gusting 5 22.2
2019-Sep-20 22:05 338 0 gusting 5 22.2
2019-Sep-20 21:55 338 0 gusting 3 22.2
2019-Sep-20 21:45 045 0 gusting 4 22.2
2019-Sep-20 21:35 045 2 gusting 6 22.2
2019-Sep-20 21:25 045 2 gusting 7 22.2
2019-Sep-20 21:15 045 3 gusting 8 22.2
2019-Sep-20 21:05 045 2 gusting 6 22.2
2019-Sep-20 20:55 045 0 gusting 3 22.2
2019-Sep-20 20:45 045 1 gusting 3 22.2
2019-Sep-20 20:35 045 2 gusting 6 22.2
2019-Sep-20 20:25 045 2 gusting 6 22.2
2019-Sep-20 20:15 045 3 gusting 6 22.2
2019-Sep-20 20:05 068 2 gusting 4 22.8
2019-Sep-20 19:55 045 2 gusting 5 22.8
2019-Sep-20 19:45 068 3 gusting 6 22.8
2019-Sep-20 19:35 045 3 gusting 6 22.8
2019-Sep-20 19:25 068 1 gusting 5 22.8
2019-Sep-20 19:15 068 1 gusting 5 22.8
2019-Sep-20 19:05 045 1 gusting 4 22.8
2019-Sep-20 18:55 068 0 gusting 3 22.8
2019-Sep-20 18:45 068 1 gusting 4 22.8
2019-Sep-20 18:35 068 0 gusting 5 22.8
2019-Sep-20 18:25 068 0 gusting 4 22.8
2019-Sep-20 18:15 045 0 gusting 3 22.8
2019-Sep-20 18:05 045 1 gusting 5 22.8
2019-Sep-20 17:55 068 1 gusting 6 23.3
2019-Sep-20 17:45 068 2 gusting 6 23.3
2019-Sep-20 17:35 068 2 gusting 6 23.3
2019-Sep-20 17:25 068 1 gusting 3 23.9
2019-Sep-20 17:15 068 2 gusting 6 23.9
2019-Sep-20 17:05 068 4 gusting 7 23.9
2019-Sep-20 16:55 068 1 gusting 4 23.9
2019-Sep-20 16:45 068 2 gusting 4 23.9
2019-Sep-20 16:35 23.9
2019-Sep-20 16:25 113 0 gusting 3 23.9
2019-Sep-20 16:15 068 0 gusting 3 24.4
2019-Sep-20 16:05 135 1 gusting 5 24.4
2019-Sep-20 15:55 113 2 gusting 6 24.4
2019-Sep-20 15:45 113 2 gusting 6 24.4
2019-Sep-20 15:35 068 2 gusting 5 24.4
2019-Sep-20 15:25 068 1 gusting 6 24.4
2019-Sep-20 15:15 045 1 gusting 6 24.4
2019-Sep-20 15:05 068 1 gusting 5 24.4
2019-Sep-20 14:55 113 2 gusting 6 24.4
2019-Sep-20 14:45 113 3 gusting 5 24.4
2019-Sep-20 14:35 068 2 gusting 6 24.4
2019-Sep-20 14:25 068 2 gusting 6 25.0
2019-Sep-20 14:15 068 1 gusting 3 25.0
2019-Sep-20 14:05 045 1 gusting 4 25.0
2019-Sep-20 13:55 113 2 gusting 7 25.0
2019-Sep-20 13:45 045 1 gusting 6 25.0
2019-Sep-20 13:35 113 2 gusting 8 25.0
2019-Sep-20 13:25 068 2 gusting 6 24.4
2019-Sep-20 13:15 113 3 gusting 7 24.4
2019-Sep-20 13:05 068 3 gusting 6 24.4
2019-Sep-20 12:55 068 3 gusting 6 24.4
2019-Sep-20 12:45 090 3 gusting 9 24.4
2019-Sep-20 12:35 068 3 gusting 9 24.4
2019-Sep-20 12:25 113 4 gusting 9 25.0
2019-Sep-20 12:15 113 3 gusting 8 25.0
2019-Sep-20 12:05 113 2 gusting 7 25.0
2019-Sep-20 11:55 068 3 gusting 6 25.0
2019-Sep-20 11:45 068 3 gusting 9 25.0
2019-Sep-20 11:35 068 4 gusting 7 25.0
2019-Sep-20 11:25 068 3 gusting 6 25.0
2019-Sep-20 11:15 068 3 gusting 6 25.0
2019-Sep-20 11:05 090 2 gusting 9 25.0
2019-Sep-20 10:55 068 2 gusting 7 25.0
2019-Sep-20 10:45 068 4 gusting 8 25.0
2019-Sep-20 10:35 068 3 gusting 6 25.0
2019-Sep-20 10:25 045 2 gusting 6 25.0
2019-Sep-20 10:15 068 4 gusting 9 25.0
2019-Sep-20 10:05 068 3 gusting 8 25.0
2019-Sep-20 09:55 068 3 gusting 6 25.6
2019-Sep-20 09:45 023 2 gusting 6 25.0
2019-Sep-20 09:35 068 3 gusting 6 25.0
2019-Sep-20 09:25 068 2 gusting 6 25.0
2019-Sep-20 09:15 068 5 gusting 8 24.4
2019-Sep-20 09:05 045 1 gusting 5 25.0
2019-Sep-20 08:55 045 0 gusting 4 24.4
2019-Sep-20 08:45 068 2 gusting 5 23.9
2019-Sep-20 08:35 068 1 gusting 5 23.9
2019-Sep-20 08:25 068 2 gusting 4 23.3
2019-Sep-20 08:15 068 0 gusting 4 23.3
2019-Sep-20 08:05 23.3
2019-Sep-20 07:55 23.3
2019-Sep-20 07:45 23.3
2019-Sep-20 07:35 22.8
2019-Sep-20 07:25 22.8
2019-Sep-20 07:15 22.2
2019-Sep-20 07:05 21.7
2019-Sep-20 06:55 21.7
2019-Sep-20 06:45 21.7
2019-Sep-20 06:35 21.7
2019-Sep-20 06:25 21.1
2019-Sep-20 06:15 21.1
2019-Sep-20 06:05 21.1
2019-Sep-20 05:55 21.1
2019-Sep-20 05:45 21.1
2019-Sep-20 05:35 21.1
2019-Sep-20 05:25 21.1
2019-Sep-20 05:15 21.1
2019-Sep-20 05:05 21.1
2019-Sep-20 04:55 21.1
2019-Sep-20 04:45 21.1
2019-Sep-20 04:35 21.1
2019-Sep-20 04:25 21.7
2019-Sep-20 04:15 21.7
2019-Sep-20 04:05 21.7
2019-Sep-20 03:55 21.7
2019-Sep-20 03:45 21.1
2019-Sep-20 03:35 315 0 gusting 3 21.1
2019-Sep-20 03:25 21.1
2019-Sep-20 03:15 21.1
2019-Sep-20 03:05 21.1
2019-Sep-20 02:55 21.1
2019-Sep-20 02:45 21.1
2019-Sep-20 02:35 21.1
2019-Sep-20 02:25 21.1
2019-Sep-20 02:15 338 0 gusting 2 21.1
2019-Sep-20 02:05 21.1